Preview of NWS' New Version of Forecast
This preview is not operational and should not be used for support decisions.

Regional Weather Roundup (RWR)

Issued by National Weather Service (NWS)

                            
000
ASUS43 KBIS 180710
RWRND 

NORTH DAKOTA REGIONAL WEATHER ROUNDUP
NATIONAL WEATHER SERVICE BISMARCK ND
200 AM CDT TUE JUN 18 2019

NOTE: "FAIR" INDICATES FEW OR NO CLOUDS BELOW 12,000 FEET WITH NO
SIGNIFICANT WEATHER AND/OR OBSTRUCTIONS TO VISIBILITY.


NDZ001>003-009>011-017-180800-
NORTHWEST NORTH DAKOTA
  
CITY           SKY/WX    TMP DP  RH WIND       PRES   REMARKS
WILLISTON      CLEAR     49  45  86 N3        30.07F                  
MINOT          CLEAR     53  47  79 S3        30.06F                  
MINOT AFB      CLEAR     47  45  93 W3        30.06F                  
$$
 
NDZ018>021-031>035-040>046-180800-
SOUTHWEST NORTH DAKOTA
  
CITY           SKY/WX    TMP DP  RH WIND       PRES   REMARKS
BISMARCK       CLEAR     52  48  86 CALM      30.08F                  
DICKINSON      MOCLDY    52  45  77 E6        30.06F                  
GARRISON         N/A     49  47  93 NE5       30.07F                  
HETTINGER ARPT CLOUDY    55  48  77 E6        30.09F                  
$$
 
NDZ004>008-012>016-024-026-027-054-180800-
NORTHEAST NORTH DAKOTA
  
CITY           SKY/WX    TMP DP  RH WIND       PRES   REMARKS
GRAND FORKS    MOCLDY    53  52  96 NW5       30.01S FOG              
GRND FRKS AFB  MOCLDY    55  55 100 N6        30.01F                  
DEVILS LAKE    MOCLDY    55  53  93 NW7       30.06S                  
$$
 
NDZ022-023-025-028>030-036>039-047>053-180800-
SOUTHEAST NORTH DAKOTA
  
CITY           SKY/WX    TMP DP  RH WIND       PRES   REMARKS
FARGO          CLEAR     53  52  96 CALM      30.01S                  
JAMESTOWN      MOCLDY    55  52  89 W5        30.04F                  
$$